KD7MPG-3 Weather Reports


time (UTC)temp
C
wind
direction
speed
KPH
gust
KPH
rain 1hr
cm
rain 24hr
cm
rain mn
cm
humidity
%
barometer
mb
20260831180946 20 103 3.2 12.9 0.00 0.00 0.00 70 1019.2
20260831180441 20 109 4.8 12.9 0.00 0.00 0.00 69 1019.2
20260831175940 20 61 3.2 9.7 0.00 0.00 0.00 70 1019.2
20260831175441 20 42 1.6 6.4 0.00 0.00 0.00 71 1019.3
20260831174941 20 329 3.2 8.0 0.00 0.00 0.00 71 1019.5
20260831174440 20 305 3.2 9.7 0.00 0.00 0.00 71 1019.6
20260831173941 19 96 1.6 9.7 0.00 0.00 0.00 72 1019.6
20260831173438 19 67 1.6 8.0 0.00 0.00 0.00 72 1019.7
20260831172937 19 87 1.6 6.4 0.00 0.00 0.00 73 1019.8
20260831172437 18 76 1.6 6.4 0.00 0.00 0.00 75 1019.8
20260831171938 18 313 1.6 6.4 0.00 0.00 0.00 75 1019.8
20260831171434 18 109 3.2 6.4 0.00 0.00 0.00 75 1019.8
20260831170935 18 89 3.2 6.4 0.00 0.00 0.00 76 1019.8
20260831170432 18 49 1.6 6.4 0.00 0.00 0.00 76 1019.8
20260831165930 18 72 1.6 8.0 0.00 0.00 0.00 77 1019.9
20260831165429 17 72 1.6 8.0 0.00 0.00 0.00 77 1020.0
20260831164928 17 78 1.6 6.4 0.00 0.00 0.00 78 1020.0
20260831164428 17 76 3.2 6.4 0.00 0.00 0.00 80 1020.1
20260831163928 17 94 1.6 6.4 0.00 0.00 0.00 81 1020.2
20260831163422 16 98 1.6 6.4 0.00 0.00 0.00 82 1020.2
20260831162922 16 83 1.6 4.8 0.00 0.00 0.00 82 1020.2
20260831162422 16 84 1.6 4.8 0.00 0.00 0.00 83 1020.2
20260831161922 16 71 1.6 9.7 0.00 0.00 0.00 84 1020.3
20260831161422 15 70 1.6 9.7 0.00 0.00 0.00 84 1020.3
20260831160923 15 53 1.6 4.8 0.00 0.00 0.00 85 1020.4
20260831160417 15 79 1.6 4.8 0.00 0.00 0.00 86 1020.3
20260831155916 14 67 0.0 4.8 0.00 0.00 0.00 86 1020.3
20260831155416 14 71 0.0 4.8 0.00 0.00 0.00 87 1020.4
20260831154916 14 71 1.6 4.8 0.00 0.00 0.00 87 1020.3
20260831154416 13 71 3.2 6.4 0.00 0.00 0.00 87 1020.3
20260831153917 13 65 1.6 6.4 0.00 0.00 0.00 87 1020.4
20260831153413 13 26 1.6 4.8 0.00 0.00 0.00 88 1020.4
20260831152912 13 29 1.6 6.4 0.00 0.00 0.00 89 1020.3
20260831152414 13 350 0.0 6.4 0.00 0.00 0.00 89 1020.4
20260831151912 12 9 0.0 4.8 0.00 0.00 0.00 90 1020.3
20260831151409 12 5 0.0 0.0 0.00 0.00 0.00 90 1020.3
20260831150909 12 5 0.0 0.0 0.00 0.00 0.00 91 1020.3
20260831150409 12 9 0.0 0.0 0.00 0.00 0.00 91 1020.4
20260831145906 12 9 0.0 0.0 0.00 0.00 0.00 91 1020.5
20260831145407 11 5 0.0 0.0 0.00 0.00 0.00 92 1020.5
20260831144906 11 9 0.0 0.0 0.00 0.00 0.00 92 1020.5
20260831144403 11 9 0.0 0.0 0.00 0.00 0.00 92 1020.5
20260831143905 11 5 0.0 0.0 0.00 0.00 0.00 92 1020.5
20260831143359 10 10 0.0 0.0 0.00 0.00 0.00 92 1020.4
20260831142858 10 10 0.0 0.0 0.00 0.00 0.00 91 1020.4
20260831142358 10 9 0.0 0.0 0.00 0.00 0.00 91 1020.4
20260831141858 10 5 0.0 0.0 0.00 0.00 0.00 90 1020.3
20260831141358 10 5 0.0 0.0 0.00 0.00 0.00 90 1020.2
20260831140859 10 5 0.0 0.0 0.00 0.00 0.00 90 1020.3
20260831140352 10 5 0.0 0.0 0.00 0.00 0.00 90 1020.4
20260831135851 10 9 0.0 0.0 0.00 0.00 0.00 90 1020.3
20260831135352 10 9 0.0 0.0 0.00 0.00 0.00 90 1020.3
20260831134851 10 5 0.0 0.0 0.00 0.00 0.00 89 1020.4
20260831134352 10 11 0.0 0.0 0.00 0.00 0.00 89 1020.4
20260831133851 10 5 0.0 0.0 0.00 0.00 0.00 89 1020.4
20260831133349 10 5 0.0 0.0 0.00 0.00 0.00 89 1020.5
20260831132848 10 5 0.0 0.0 0.00 0.00 0.00 89 1020.5
20260831132345 10 9 0.0 0.0 0.00 0.00 0.00 89 1020.5
20260831131846 10 9 0.0 0.0 0.00 0.00 0.00 89 1020.5
20260831131346 10 5 0.0 0.0 0.00 0.00 0.00 89 1020.5
20260831130847 10 9 0.0 0.0 0.00 0.00 0.00 89 1020.5
20260831130339 11 5 0.0 0.0 0.00 0.00 0.00 88 1020.5
20260831125840 11 9 0.0 0.0 0.00 0.00 0.00 89 1020.5
20260831125346 11 9 0.0 0.0 0.00 0.00 0.00 89 1020.5
20260831124840 11 11 0.0 0.0 0.00 0.00 0.00 88 1020.6
20260831124338 11 9 0.0 0.0 0.00 0.00 0.00 88 1020.5
20260831123839 11 5 0.0 0.0 0.00 0.00 0.00 88 1020.6
20260831123333 11 5 0.0 0.0 0.00 0.00 0.00 88 1020.6
20260831122831 11 10 0.0 0.0 0.00 0.00 0.00 88 1020.6
20260831122328 12 5 0.0 0.0 0.00 0.00 0.00 87 1020.7
20260831121826 12 5 0.0 0.0 0.00 0.00 0.00 87 1020.7
20260831121331 12 5 0.0 0.0 0.00 0.00 0.00 87 1020.7
20260831120821 12 11 0.0 0.0 0.00 0.00 0.00 87 1020.7
20260831120319 12 10 0.0 0.0 0.00 0.00 0.00 87 1020.6
20260831115820 12 10 0.0 0.0 0.00 0.00 0.00 87 1020.7
20260831115320 12 9 0.0 0.0 0.00 0.00 0.00 87 1020.6
20260831114820 12 5 0.0 0.0 0.00 0.00 0.00 87 1020.7
20260831114321 13 5 0.0 0.0 0.00 0.00 0.00 87 1020.8
20260831113817 13 10 0.0 0.0 0.00 0.00 0.00 87 1020.7
20260831113315 13 5 0.0 1.6 0.00 0.00 0.00 87 1020.9
20260831112813 13 10 0.0 1.6 0.00 0.00 0.00 87 1020.8
20260831112312 13 5 0.0 0.0 0.00 0.00 0.00 87 1020.8
20260831111810 13 9 0.0 1.6 0.00 0.00 0.00 87 1021.0
20260831111309 13 5 0.0 3.2 0.00 0.00 0.00 87 1021.0
20260831110808 13 5 0.0 3.2 0.00 0.00 0.00 87 1020.9
20260831110309 13 5 0.0 3.2 0.00 0.00 0.00 87 1020.9
20260831105807 13 5 0.0 1.6 0.00 0.00 0.00 87 1020.9
20260831105306 13 9 0.0 1.6 0.00 0.00 0.00 87 1021.1
20260831104806 13 9 0.0 1.6 0.00 0.00 0.00 87 1020.9
20260831104305 13 10 0.0 3.2 0.00 0.00 0.00 87 1021.0
20260831103806 13 10 0.0 3.2 0.00 0.00 0.00 87 1021.0
20260831103301 12 5 0.0 1.6 0.00 0.00 0.00 87 1021.1
20260831102802 12 5 0.0 1.6 0.00 0.00 0.00 87 1021.0
20260831102305 12 5 0.0 1.6 0.00 0.00 0.00 88 1021.1
20260831101802 12 9 0.0 1.6 0.00 0.00 0.00 88 1021.1
20260831101302 12 5 0.0 1.6 0.00 0.00 0.00 88 1021.2
20260831100802 12 5 0.0 1.6 0.00 0.00 0.00 88 1021.2
20260831100257 12 5 0.0 0.0 0.00 0.00 0.00 87 1021.2
20260831095759 12 5 0.0 0.0 0.00 0.00 0.00 86 1021.3
20260831095259 12 11 0.0 0.0 0.00 0.00 0.00 86 1021.5
20260831094758 12 5 0.0 0.0 0.00 0.00 0.00 85 1021.4
20260831094257 12 5 0.0 0.0 0.00 0.00 0.00 85 1021.6
20260831093759 13 5 0.0 0.0 0.00 0.00 0.00 85 1021.5
20260831093255 13 9 0.0 0.0 0.00 0.00 0.00 85 1021.6
20260831092754 13 5 0.0 0.0 0.00 0.00 0.00 84 1021.7
20260831092254 13 5 0.0 0.0 0.00 0.00 0.00 84 1021.6
20260831091753 13 5 0.0 0.0 0.00 0.00 0.00 84 1021.8
20260831091253 13 5 0.0 0.0 0.00 0.00 0.00 84 1021.9
20260831090754 13 11 0.0 0.0 0.00 0.00 0.00 84 1021.9
20260831090251 14 9 0.0 0.0 0.00 0.00 0.00 83 1022.0
20260831085749 14 9 0.0 0.0 0.00 0.00 0.00 82 1022.0
20260831085247 14 9 0.0 0.0 0.00 0.00 0.00 82 1022.1
20260831084747 15 5 0.0 1.6 0.00 0.00 0.00 82 1022.0
20260831084246 15 5 0.0 1.6 0.00 0.00 0.00 82 1022.1
20260831083743 15 5 0.0 1.6 0.00 0.00 0.00 82 1022.1
20260831083241 15 9 0.0 1.6 0.00 0.00 0.00 82 1022.2
20260831082741 15 5 0.0 4.8 0.00 0.00 0.00 82 1022.1
20260831082241 15 5 0.0 4.8 0.00 0.00 0.00 82 1022.1
20260831081739 15 9 0.0 4.8 0.00 0.00 0.00 81 1022.2
20260831081240 15 9 1.6 4.8 0.00 0.00 0.00 81 1022.1
20260831080733 15 5 1.6 4.8 0.00 0.00 0.00 81 1022.2
20260831080233 15 11 1.6 4.8 0.00 0.00 0.00 81 1022.4
20260831075734 15 9 0.0 3.2 0.00 0.00 0.00 80 1022.4
20260831075234 15 9 0.0 4.8 0.00 0.00 0.00 80 1022.5
20260831074733 15 10 0.0 4.8 0.00 0.00 0.00 80 1022.4
20260831074234 15 5 0.0 4.8 0.00 0.00 0.00 80 1022.5
20260831073728 15 16 1.6 4.8 0.00 0.00 0.00 80 1022.4
20260831073227 16 16 1.6 4.8 0.00 0.00 0.00 80 1022.6
20260831072724 16 22 1.6 3.2 0.00 0.00 0.00 79 1022.7
20260831072221 16 22 1.6 3.2 0.00 0.00 0.00 79 1022.7
20260831071722 16 22 0.0 3.2 0.00 0.00 0.00 79 1022.7
20260831071217 16 22 0.0 3.2 0.00 0.00 0.00 78 1022.8
20260831070717 16 24 0.0 3.2 0.00 0.00 0.00 78 1022.9
20260831070219 16 24 0.0 3.2 0.00 0.00 0.00 78 1022.9
20260831065715 16 24 1.6 4.8 0.00 0.00 0.00 77 1022.9
20260831065216 16 25 1.6 4.8 0.00 0.00 0.00 77 1023.0
20260831064716 16 23 1.6 4.8 0.00 0.00 0.00 77 1023.1
20260831064213 16 26 0.0 4.8 0.00 0.00 0.00 76 1023.0
20260831063712 17 25 0.0 3.2 0.00 0.00 0.00 76 1023.1
20260831063211 17 27 0.0 3.2 0.00 0.00 0.00 75 1023.1
20260831062711 17 23 1.6 3.2 0.00 0.00 0.00 75 1023.2
20260831062212 17 23 1.6 4.8 0.00 0.00 0.00 74 1023.3
20260831061712 17 23 1.6 8.0 0.00 0.00 0.00 74 1023.3
20260831061208 17 19 3.2 8.0 0.00 0.00 0.00 74 1023.3
20260831060708 17 22 3.2 8.0 0.00 0.00 0.00 74 1023.4
20260831060207 17 11 1.6 6.4 0.00 0.00 0.00 73 1023.4
20260831055707 17 24 1.6 6.4 0.00 0.00 0.00 72 1023.5
20260831055205 17 20 1.6 6.4 0.00 0.00 0.00 72 1023.5
20260831054706 17 24 1.6 6.4 0.00 0.00 0.00 71 1023.4
20260831054205 17 13 1.6 4.8 0.00 0.00 0.00 71 1023.5
20260831053705 18 26 1.6 4.8 0.00 0.00 0.00 70 1023.5
20260831053204 18 28 1.6 11.3 0.00 0.00 0.00 70 1023.6
20260831052703 18 20 3.2 11.3 0.00 0.00 0.00 69 1023.7
20260831052205 18 25 1.6 8.0 0.00 0.00 0.00 69 1023.7
20260831051702 18 43 1.6 8.0 0.00 0.00 0.00 69 1023.7
20260831051200 18 17 3.2 8.0 0.00 0.00 0.00 68 1023.8
20260831050700 18 12 3.2 8.0 0.00 0.00 0.00 68 1023.7
20260831050153 18 32 3.2 8.0 0.00 0.00 0.00 68 1023.7
20260831045653 18 13 3.2 9.7 0.00 0.00 0.00 67 1023.8
20260831045153 19 44 4.8 14.5 0.00 0.00 0.00 67 1023.8
20260831044653 19 15 4.8 14.5 0.00 0.00 0.00 66 1023.8
20260831044153 19 13 4.8 11.3 0.00 0.00 0.00 66 1023.9
20260831043653 19 341 4.8 9.7 0.00 0.00 0.00 66 1023.8
20260831043147 19 24 4.8 9.7 0.00 0.00 0.00 65 1024.0
20260831042647 19 306 3.2 9.7 0.00 0.00 0.00 65 1023.9
20260831042147 20 32 3.2 9.7 0.00 0.00 0.00 64 1023.9
20260831041647 20 40 3.2 9.7 0.00 0.00 0.00 64 1023.9
20260831041147 20 305 4.8 11.3 0.00 0.00 0.00 63 1023.9
20260831040648 20 355 6.4 11.3 0.00 0.00 0.00 63 1023.9
20260831040141 20 344 4.8 12.9 0.00 0.00 0.00 63 1023.9
20260831035641 20 21 3.2 12.9 0.00 0.00 0.00 63 1024.0
20260831035141 20 5 4.8 12.9 0.00 0.00 0.00 63 1023.8
20260831034641 20 24 3.2 12.9 0.00 0.00 0.00 62 1023.8
20260831034141 20 355 3.2 11.3 0.00 0.00 0.00 62 1023.8
20260831033642 20 320 3.2 11.3 0.00 0.00 0.00 61 1023.7
20260831033137 20 36 3.2 12.9 0.00 0.00 0.00 61 1023.7
20260831032637 21 24 4.8 12.9 0.00 0.00 0.00 61 1023.6
20260831032135 21 85 4.8 16.1 0.00 0.00 0.00 60 1023.6
20260831031635 21 46 4.8 16.1 0.00 0.00 0.00 60 1023.7
20260831031135 21 54 4.8 16.1 0.00 0.00 0.00 60 1023.7
20260831030636 21 97 6.4 17.7 0.00 0.00 0.00 60 1023.8
20260831030133 21 28 4.8 17.7 0.00 0.00 0.00 60 1023.8
20260831025633 21 114 4.8 12.9 0.00 0.00 0.00 60 1023.7
20260831025134 22 42 4.8 16.1 0.00 0.00 0.00 60 1023.7
20260831024631 22 26 4.8 16.1 0.00 0.00 0.00 59 1023.6
20260831024129 22 342 4.8 16.1 0.00 0.00 0.00 59 1023.8
20260831023630 22 26 4.8 16.1 0.00 0.00 0.00 59 1023.8
20260831023124 22 53 4.8 16.1 0.00 0.00 0.00 58 1023.8
20260831022623 22 37 4.8 14.5 0.00 0.00 0.00 57 1023.7
20260831022123 22 19 4.8 20.9 0.00 0.00 0.00 57 1023.8
20260831021623 23 355 4.8 20.9 0.00 0.00 0.00 57 1023.8
20260831021122 23 42 4.8 16.1 0.00 0.00 0.00 57 1023.8
20260831020624 23 33 4.8 14.5 0.00 0.00 0.00 57 1023.8
20260831020119 23 36 6.4 14.5 0.00 0.00 0.00 56 1023.9
20260831015619 23 76 6.4 17.7 0.00 0.00 0.00 56 1023.8
20260831015116 23 26 6.4 17.7 0.00 0.00 0.00 56 1023.9
20260831014617 23 348 4.8 16.1 0.00 0.00 0.00 56 1023.9
20260831014117 23 57 6.4 22.5 0.00 0.00 0.00 55 1024.0
20260831013617 23 77 4.8 22.5 0.00 0.00 0.00 55 1024.0
20260831013112 23 13 6.4 17.7 0.00 0.00 0.00 55 1024.1
20260831012611 23 26 6.4 17.7 0.00 0.00 0.00 54 1024.0
20260831012111 24 0 6.4 17.7 0.00 0.00 0.00 54 1024.1
20260831011611 24 10 6.4 16.1 0.00 0.00 0.00 54 1024.0
20260831011111 24 36 6.4 16.1 0.00 0.00 0.00 54 1024.1
20260831010612 25 17 4.8 16.1 0.00 0.00 0.00 53 1024.3
20260831010108 24 32 4.8 14.5 0.00 0.00 0.00 53 1024.3
20260831005606 24 13 6.4 24.1 0.00 0.00 0.00 53 1024.3
20260831005105 24 51 8.0 24.1 0.00 0.00 0.00 53 1024.4
20260831004605 24 294 8.0 19.3 0.00 0.00 0.00 52 1024.4
20260831004104 24 57 6.4 16.1 0.00 0.00 0.00 53 1024.6
20260831003606 24 60 8.0 24.1 0.00 0.00 0.00 53 1024.3
20260831003103 24 50 8.0 24.1 0.00 0.00 0.00 53 1024.4
20260831002602 25 14 8.0 19.3 0.00 0.00 0.00 51 1024.5
20260831002104 25 338 6.4 17.7 0.00 0.00 0.00 51 1024.5
20260831001603 25 159 6.4 20.9 0.00 0.00 0.00 51 1024.6
20260831001104 25 53 6.4 20.9 0.00 0.00 0.00 52 1024.6
20260831000603 25 15 6.4 19.3 0.00 0.00 0.00 51 1024.8
20260831000104 25 9 6.4 19.3 0.00 0.00 0.00 51 1024.9
20260830235559 25 42 4.8 14.5 0.00 0.00 0.00 51 1025.0
20260830235058 25 51 4.8 19.3 0.00 0.00 0.00 52 1024.9
20260830234556 25 58 8.0 19.3 0.00 0.00 0.00 51 1025.0
20260830234056 25 5 8.0 17.7 0.00 0.00 0.00 50 1025.1
20260830233557 25 26 6.4 17.7 0.00 0.00 0.00 51 1025.3
20260830233057 25 0 6.4 17.7 0.00 0.00 0.00 50 1025.2
20260830232555 25 347 4.8 14.5 0.00 0.00 0.00 51 1025.5
20260830232055 25 355 6.4 16.1 0.00 0.00 0.00 50 1025.2
20260830231554 25 28 6.4 17.7 0.00 0.00 0.00 50 1025.3
20260830231054 25 36 6.4 17.7 0.00 0.00 0.00 50 1025.4
20260830230555 25 326 8.0 19.3 0.00 0.00 0.00 51 1025.4
20260830230055 25 33 8.0 19.3 0.00 0.00 0.00 50 1025.5
20260830225555 25 280 8.0 17.7 0.00 0.00 0.00 50 1025.5
20260830225052 25 324 6.4 17.7 0.00 0.00 0.00 50 1025.6
20260830224546 24 63 4.8 17.7 0.00 0.00 0.00 50 1025.8
20260830224040 24 44 6.4 16.1 0.00 0.00 0.00 51 1025.9
20260830223534 24 5 6.4 16.1 0.00 0.00 0.00 50 1026.0
20260830223028 24 299 6.4 19.3 0.00 0.00 0.00 51 1026.0
20260830222527 24 5 8.0 19.3 0.00 0.00 0.00 50 1026.2
20260830222026 24 277 6.4 14.5 0.00 0.00 0.00 50 1026.3
20260830221526 24 284 4.8 16.1 0.00 0.00 0.00 50 1026.3
20260830221024 24 5 4.8 16.1 0.00 0.00 0.00 51 1026.4
20260830220525 23 46 4.8 16.1 0.00 0.00 0.00 50 1026.6
20260830220026 23 35 4.8 16.1 0.00 0.00 0.00 50 1026.6
20260830215520 23 15 6.4 20.9 0.00 0.00 0.00 51 1026.7
20260830215021 23 34 6.4 20.9 0.00 0.00 0.00 50 1026.9
20260830214520 23 313 6.4 19.3 0.00 0.00 0.00 52 1026.9
20260830214021 23 36 6.4 19.3 0.00 0.00 0.00 53 1027.0
20260830213520 23 323 6.4 17.7 0.00 0.00 0.00 53 1027.1
20260830213022 23 263 6.4 16.1 0.00 0.00 0.00 52 1027.1
20260830212517 23 5 6.4 17.7 0.00 0.00 0.00 52 1027.2
20260830212016 23 16 6.4 17.7 0.00 0.00 0.00 52 1027.4
20260830211517 23 29 6.4 20.9 0.00 0.00 0.00 51 1027.2
20260830211017 23 74 4.8 20.9 0.00 0.00 0.00 53 1027.3
20260830210516 23 295 4.8 19.3 0.00 0.00 0.00 53 1027.4
20260830210017 22 188 6.4 19.3 0.00 0.00 0.00 53 1027.4
20260830205513 22 42 6.4 16.1 0.00 0.00 0.00 55 1027.5
20260830205012 22 9 6.4 19.3 0.00 0.00 0.00 53 1027.6
20260830204512 22 57 8.0 20.9 0.00 0.00 0.00 55 1027.6
20260830204013 22 316 6.4 20.9 0.00 0.00 0.00 55 1027.6
20260830203512 22 26 6.4 19.3 0.00 0.00 0.00 56 1027.8
20260830203014 22 32 8.0 19.3 0.00 0.00 0.00 56 1027.9
20260830202508 21 288 6.4 16.1 0.00 0.00 0.00 56 1027.9
20260830202008 21 263 8.0 19.3 0.00 0.00 0.00 57 1027.9
20260830201509 21 309 8.0 19.3 0.00 0.00 0.00 58 1028.0
20260830201006 21 277 6.4 17.7 0.00 0.00 0.00 58 1028.0
20260830200507 21 72 6.4 17.7 0.00 0.00 0.00 59 1028.0
20260830200006 21 86 8.0 19.3 0.00 0.00 0.00 59 1028.1
20260830195506 21 20 8.0 19.3 0.00 0.00 0.00 58 1028.2
20260830195000 21 331 4.8 16.1 0.00 0.00 0.00 59 1028.2
20260830194500 21 279 4.8 16.1 0.00 0.00 0.00 60 1028.2
20260830193958 21 332 6.4 16.1 0.00 0.00 0.00 61 1028.3
20260830193459 20 49 6.4 17.7 0.00 0.00 0.00 60 1028.3
20260830192958 21 40 8.0 20.9 0.00 0.00 0.00 61 1028.6
20260830192459 21 320 8.0 20.9 0.00 0.00 0.00 60 1028.5
20260830191954 21 346 6.4 17.7 0.00 0.00 0.00 61 1028.6
20260830191452 21 51 6.4 17.7 0.00 0.00 0.00 61 1028.7
20260830190952 20 31 6.4 17.7 0.00 0.00 0.00 62 1028.7
20260830190452 20 82 4.8 16.1 0.00 0.00 0.00 62 1028.8
20260830185952 20 279 3.2 17.7 0.00 0.00 0.00 63 1028.9
20260830185453 20 42 4.8 17.7 0.00 0.00 0.00 63 1028.9
20260830184946 20 60 3.2 11.3 0.00 0.00 0.00 63 1028.9
20260830184446 20 318 4.8 12.9 0.00 0.00 0.00 62 1028.9
20260830183946 20 355 4.8 16.1 0.00 0.00 0.00 64 1028.9
20260830183446 20 35 4.8 16.1 0.00 0.00 0.00 64 1028.9
20260830182946 19 346 4.8 14.5 0.00 0.00 0.00 66 1028.9
20260830182446 19 14 6.4 16.1 0.00 0.00 0.00 65 1028.9
20260830181945 19 5 6.4 16.1 0.00 0.00 0.00 65 1029.1
20260830181442 19 11 6.4 14.5 0.00 0.00 0.00 65 1029.0